When you browse on this site, cookies collect data to enhance your experience and personalize the content and advertising you see.
Visit our Privacy Policy to learn more. By continuing to use the site, you agree to this use of cookies and data.

Hourly Weather Bicester

Today, 2 July, Thursday

Time Temperature Precipitation Wind Pressure Humidity
00:00 +10°C° 0 mm 3 mps 749 mmHg 96%
01:00 +10°C° 0 mm 3 mps 748 mmHg 97%
02:00 +10°C° 0 mm 3 mps 748 mmHg 97%
03:00 +10°C° 0 mm 3 mps 748 mmHg 97%
04:00 +10°C° 0 mm 4 mps 749 mmHg 96%
05:00 +11°C° 0 mm 4 mps 749 mmHg 94%
06:00 +12°C° 0 mm 4 mps 749 mmHg 93%
07:00 +13°C° 0.1 mm 4 mps 749 mmHg 89%
08:00 +14°C° 0.1 mm 4 mps 750 mmHg 86%
09:00 +15°C° 0.1 mm 4 mps 750 mmHg 82%
10:00 +17°C° 1 mm 4 mps 750 mmHg 82%
11:00 +18°C° 1 mm 4 mps 750 mmHg 81%
12:00 +19°C° 1 mm 4 mps 751 mmHg 80%
13:00 +19°C° 0.7 mm 4 mps 751 mmHg 79%
14:00 +19°C° 0.7 mm 4 mps 751 mmHg 78%
15:00 +20°C° 0.7 mm 4 mps 751 mmHg 77%
16:00 +19°C° 0.6 mm 3 mps 751 mmHg 79%
17:00 +19°C° 0.6 mm 3 mps 752 mmHg 81%
18:00 +19°C° 0.6 mm 2 mps 752 mmHg 83%
19:00 +17°C° 0.3 mm 2 mps 752 mmHg 86%
20:00 +16°C° 0.3 mm 2 mps 753 mmHg 90%
21:00 +15°C° 0.3 mm 2 mps 753 mmHg 93%
22:00 +14°C° 0 mm 2 mps 754 mmHg 93%
23:00 +12°C° 0 mm 3 mps 754 mmHg 94%

Tomorrow, 3 July, Friday

Time Temperature Precipitation Wind Pressure Humidity
00:00 +11°C° 0 mm 3 mps 754 mmHg 95%
01:00 +11°C° 0 mm 3 mps 754 mmHg 95%
02:00 +11°C° 0 mm 3 mps 754 mmHg 96%
03:00 +10°C° 0 mm 3 mps 753 mmHg 96%
04:00 +11°C° 0 mm 4 mps 754 mmHg 95%
05:00 +12°C° 0 mm 4 mps 754 mmHg 94%
06:00 +12°C° 0 mm 5 mps 754 mmHg 93%
07:00 +13°C° 0 mm 5 mps 754 mmHg 91%
08:00 +13°C° 0 mm 6 mps 754 mmHg 89%
09:00 +14°C° 0 mm 7 mps 754 mmHg 86%
10:00 +14°C° 0 mm 7 mps 753 mmHg 85%
11:00 +14°C° 0 mm 7 mps 753 mmHg 84%
12:00 +14°C° 0 mm 7 mps 753 mmHg 83%
13:00 +15°C° 0 mm 7 mps 753 mmHg 83%
14:00 +15°C° 0 mm 7 mps 753 mmHg 82%
15:00 +16°C° 0 mm 8 mps 753 mmHg 82%
16:00 +16°C° 0.1 mm 8 mps 753 mmHg 84%
17:00 +15°C° 0.1 mm 8 mps 753 mmHg 86%
18:00 +15°C° 0.1 mm 7 mps 752 mmHg 89%
19:00 +15°C° 0 mm 7 mps 753 mmHg 89%
20:00 +15°C° 0 mm 7 mps 753 mmHg 89%
21:00 +15°C° 0 mm 7 mps 753 mmHg 90%
22:00 +15°C° 0 mm 7 mps 753 mmHg 90%
23:00 +15°C° 0 mm 7 mps 752 mmHg 91%

Day after tomorrow, 4 July, Saturday

Time Temperature Precipitation Wind Pressure Humidity
00:00 +16°C° 0 mm 7 mps 752 mmHg 91%
01:00 +16°C° 0 mm 7 mps 752 mmHg 91%
02:00 +16°C° 0 mm 7 mps 752 mmHg 91%
03:00 +16°C° 0 mm 7 mps 751 mmHg 91%
04:00 +16°C° 0.1 mm 7 mps 751 mmHg 91%
05:00 +16°C° 0.1 mm 7 mps 751 mmHg 92%
06:00 +16°C° 0.1 mm 7 mps 751 mmHg 93%
07:00 +17°C° 0.2 mm 7 mps 751 mmHg 93%
08:00 +17°C° 0.2 mm 7 mps 751 mmHg 93%
09:00 +17°C° 0.2 mm 7 mps 750 mmHg 93%
10:00 +17°C° 0.3 mm 7 mps 750 mmHg 93%
11:00 +17°C° 0.3 mm 7 mps 750 mmHg 94%
12:00 +17°C° 0.3 mm 7 mps 750 mmHg 94%
13:00 +17°C° 0.1 mm 7 mps 750 mmHg 91%
14:00 +18°C° 0.1 mm 8 mps 750 mmHg 89%
15:00 +20°C° 0.1 mm 8 mps 750 mmHg 86%
16:00 +18°C° 0 mm 7 mps 750 mmHg 86%
17:00 +17°C° 0 mm 7 mps 750 mmHg 86%
18:00 +17°C° 0 mm 6 mps 751 mmHg 87%
19:00 +16°C° 0 mm 6 mps 751 mmHg 87%
20:00 +16°C° 0 mm 6 mps 751 mmHg 87%
21:00 +16°C° 0 mm 5 mps 752 mmHg 87%
22:00 +16°C° 0 mm 5 mps 752 mmHg 88%
23:00 +15°C° 0 mm 5 mps 752 mmHg 89%

5 July, Sunday

Time Temperature Precipitation Wind Pressure Humidity
00:00 +15°C° 0 mm 5 mps 751 mmHg 90%
01:00 +15°C° 0 mm 5 mps 751 mmHg 89%
02:00 +15°C° 0 mm 6 mps 751 mmHg 88%
03:00 +15°C° 0 mm 6 mps 750 mmHg 87%
04:00 +15°C° 0 mm 7 mps 750 mmHg 88%
05:00 +16°C° 0 mm 8 mps 749 mmHg 88%
06:00 +16°C° 0 mm 9 mps 749 mmHg 89%
07:00 +17°C° 0.1 mm 9 mps 749 mmHg 89%
08:00 +17°C° 0.1 mm 9 mps 749 mmHg 89%
09:00 +18°C° 0.1 mm 9 mps 749 mmHg 89%
10:00 +18°C° 0.1 mm 10 mps 749 mmHg 85%
11:00 +18°C° 0.1 mm 10 mps 749 mmHg 81%
12:00 +18°C° 0.1 mm 10 mps 749 mmHg 78%
13:00 +18°C° 0.2 mm 10 mps 749 mmHg 76%
14:00 +18°C° 0.2 mm 9 mps 749 mmHg 74%
15:00 +19°C° 0.2 mm 9 mps 750 mmHg 72%
16:00 +18°C° 0.1 mm 8 mps 750 mmHg 73%
17:00 +17°C° 0.1 mm 8 mps 750 mmHg 73%
18:00 +16°C° 0.1 mm 7 mps 750 mmHg 73%
19:00 +15°C° 0 mm 6 mps 751 mmHg 75%
20:00 +13°C° 0 mm 6 mps 751 mmHg 77%
21:00 +11°C° 0 mm 6 mps 752 mmHg 78%
22:00 +11°C° 0 mm 6 mps 752 mmHg 78%
23:00 +10°C° 0 mm 6 mps 752 mmHg 78%

6 July, Monday

Time Temperature Precipitation Wind Pressure Humidity
00:00 +10°C° 0 mm 6 mps 752 mmHg 78%
01:00 +9°C° 0 mm 6 mps 752 mmHg 80%
02:00 +9°C° 0 mm 6 mps 752 mmHg 81%
03:00 +9°C° 0 mm 6 mps 752 mmHg 82%
04:00 +9°C° 0 mm 6 mps 752 mmHg 81%
05:00 +10°C° 0 mm 7 mps 752 mmHg 80%
06:00 +11°C° 0 mm 7 mps 753 mmHg 79%
07:00 +11°C° 0 mm 7 mps 753 mmHg 76%
08:00 +12°C° 0 mm 7 mps 754 mmHg 74%
09:00 +14°C° 0 mm 7 mps 755 mmHg 71%
10:00 +14°C° 0 mm 7 mps 755 mmHg 69%
11:00 +15°C° 0 mm 6 mps 756 mmHg 68%
12:00 +15°C° 0 mm 6 mps 756 mmHg 66%
13:00 +16°C° 0 mm 6 mps 757 mmHg 64%
14:00 +17°C° 0 mm 6 mps 757 mmHg 62%
15:00 +17°C° 0 mm 6 mps 758 mmHg 60%
16:00 +17°C° 0 mm 6 mps 758 mmHg 63%
17:00 +16°C° 0 mm 5 mps 758 mmHg 65%
18:00 +15°C° 0 mm 5 mps 758 mmHg 67%
19:00 +14°C° 0 mm 4 mps 759 mmHg 71%
20:00 +12°C° 0 mm 4 mps 759 mmHg 74%
21:00 +10°C° 0 mm 3 mps 760 mmHg 78%
22:00 +10°C° 0 mm 3 mps 760 mmHg 80%
23:00 +9°C° 0 mm 3 mps 760 mmHg 81%

7 July, Tuesday

Time Temperature Precipitation Wind Pressure Humidity
00:00 +8°C° 0 mm 2 mps 761 mmHg 83%
01:00 +8°C° 0 mm 2 mps 761 mmHg 85%
02:00 +8°C° 0 mm 2 mps 761 mmHg 88%
03:00 +7°C° 0 mm 2 mps 761 mmHg 90%
04:00 +8°C° 0 mm 2 mps 761 mmHg 88%
05:00 +9°C° 0 mm 2 mps 761 mmHg 85%
06:00 +10°C° 0 mm 2 mps 761 mmHg 83%
07:00 +13°C° 0 mm 2 mps 761 mmHg 78%
08:00 +14°C° 0 mm 2 mps 762 mmHg 72%
09:00 +16°C° 0 mm 2 mps 762 mmHg 67%
10:00 +17°C° 0 mm 3 mps 762 mmHg 65%
11:00 +17°C° 0 mm 3 mps 761 mmHg 63%
12:00 +18°C° 0 mm 3 mps 761 mmHg 61%
13:00 +18°C° 0 mm 3 mps 761 mmHg 61%
14:00 +19°C° 0 mm 2 mps 761 mmHg 61%
15:00 +19°C° 0 mm 2 mps 761 mmHg 61%
16:00 +19°C° 0 mm 2 mps 761 mmHg 63%
17:00 +19°C° 0 mm 2 mps 760 mmHg 66%
18:00 +19°C° 0 mm 2 mps 760 mmHg 69%
19:00 +18°C° 0 mm 1 mps 760 mmHg 74%
20:00 +16°C° 0 mm 1 mps 761 mmHg 78%
21:00 +14°C° 0 mm 1 mps 761 mmHg 83%
22:00 +13°C° 0 mm 1 mps 761 mmHg 85%
23:00 +13°C° 0 mm 1 mps 761 mmHg 87%
Show more